Weather History for Teterboro, NJ

Change the Weather History Date:

Sunday, November 24, 2013

  Actual Average Record
Temperature  
Mean Temperature 27 °F -  
Max Temperature 30 °F 50 °F 72 °F (2014)
Min Temperature 24 °F 35 °F 19 °F (2000)
Degree Days  
Heating Degree Days 38    
Moisture  
Dew Point 2 °F    
Average Humidity 35    
Maximum Humidity 44    
Minimum Humidity 22    
Precipitation  
Precipitation 0.00 in - - ()
Sea Level Pressure  
Sea Level Pressure 30.20 in    
Wind  
Wind Speed 16 mph (WNW)    
Max Wind Speed 29 mph    
Max Gust Speed 46 mph    
Visibility 10 miles    
Events      
Averages and records for this station are not official NWS values.
T = Trace of Precipitation, MM = Missing Value Source: NWS Daily Summary

Daily Weather History Graph

Daily Weather History Graph

Search for Another Location

Airport:

Trip Planner

Search our weather history database for the weather conditions in past years. The results will help you decide how hot, cold, wet, or windy it might be!

Date:

Astronomy

Nov. 24, 2013 Rise Set
Actual Time 6:54 AM EST 4:31 PM EST
Civil Twilight 6:23 AM EST 5:01 PM EST
Nautical Twilight 5:50 AM EST 5:35 PM EST
Astronomical Twilight 5:17 AM EST 6:08 PM EST
Moon 10:56 PM EST (11/24) 11:39 AM EST (11/24)
Length of Visible Light 10h 37m
Length of Day
9h 37m
Waning Gibbous, 61% of the Moon is Illuminated
Nov 24
Waning Gibbous
Nov 25
Last Quarter
Dec 2
New
Dec 9
First Quarter
Dec 17
Full

Hourly Weather History & Observations

Time (EST) Temp. Windchill Dew Point Humidity Pressure Visibility Wind Dir Wind Speed Gust Speed Precip Events Conditions
12:51 AM 28.9 °F 18.2 °F 6.1 °F 38% 30.03 in 10.0 mi NW 13.8 mph 26.5 mph N/A   Mostly Cloudy
1:51 AM 27.0 °F 15.2 °F 3.9 °F 37% 30.05 in 10.0 mi WNW 15.0 mph 28.8 mph N/A   Clear
2:51 AM 26.1 °F 13.1 °F 3.0 °F 37% 30.06 in 10.0 mi WNW 17.3 mph 27.6 mph N/A   Partly Cloudy
3:51 AM 25.0 °F 13.1 °F 1.9 °F 37% 30.06 in 10.0 mi WNW 13.8 mph 33.4 mph N/A   Clear
4:51 AM 25.0 °F 12.2 °F 1.9 °F 37% 30.07 in 10.0 mi NW 16.1 mph 31.1 mph N/A   Clear
5:51 AM 24.1 °F 9.8 °F 3.0 °F 40% 30.09 in 10.0 mi WNW 19.6 mph 27.6 mph N/A   Clear
6:51 AM 24.1 °F 10.6 °F 5.0 °F 44% 30.11 in 10.0 mi WNW 17.3 mph 27.6 mph N/A   Clear
7:51 AM 24.1 °F 9.0 °F 3.9 °F 42% 30.13 in 10.0 mi NW 21.9 mph 28.8 mph N/A   Partly Cloudy
8:51 AM 26.1 °F 12.0 °F 3.9 °F 39% 30.15 in 10.0 mi WNW 20.7 mph 27.6 mph N/A   Scattered Clouds
9:51 AM 27.0 °F 14.7 °F 3.0 °F 36% 30.17 in 10.0 mi NW 16.1 mph 34.5 mph N/A   Overcast
10:51 AM 28.0 °F 13.9 °F 3.9 °F 36% 30.18 in 10.0 mi NW 23.0 mph 46.0 mph 0.00 in   Scattered Clouds
11:51 AM 30.0 °F 16.6 °F 3.9 °F 33% 30.18 in 10.0 mi NNW 23.0 mph 34.5 mph N/A   Partly Cloudy
12:51 PM 30.9 °F 19.8 °F -2.0 °F 24% 30.17 in 10.0 mi NW 16.1 mph 36.8 mph N/A   Clear
1:51 PM 30.9 °F 16.4 °F -4.0 °F 22% 30.19 in 10.0 mi WNW 28.8 mph 36.8 mph N/A   Clear
2:51 PM 30.9 °F 17.8 °F -2.9 °F 23% 30.22 in 10.0 mi NW 23.0 mph 35.7 mph N/A   Clear
3:51 PM 28.9 °F 17.7 °F -2.0 °F 26% 30.26 in 10.0 mi NW 15.0 mph 25.3 mph N/A   Scattered Clouds
4:51 PM 28.0 °F 16.5 °F 3.9 °F 36% 30.29 in 10.0 mi NW 15.0 mph 34.5 mph N/A   Clear
5:51 PM 26.1 °F 17.6 °F 5.0 °F 41% 30.31 in 10.0 mi WNW 8.1 mph - N/A   Clear
6:51 PM 27.0 °F 15.6 °F 1.9 °F 34% 30.33 in 10.0 mi WNW 13.8 mph 25.3 mph N/A   Clear
7:51 PM 27.0 °F 17.3 °F 1.9 °F 34% 30.35 in 10.0 mi WNW 10.4 mph 20.7 mph N/A   Clear
8:51 PM 26.1 °F 15.6 °F 3.0 °F 37% 30.35 in 10.0 mi WNW 11.5 mph 19.6 mph N/A   Clear
9:51 PM 26.1 °F 15.0 °F 3.0 °F 37% 30.36 in 10.0 mi WNW 12.7 mph 23.0 mph N/A   Clear
10:51 PM 25.0 °F 14.2 °F 3.0 °F 39% 30.37 in 10.0 mi West 11.5 mph 19.6 mph N/A   Clear
11:51 PM 24.1 °F 13.7 °F 3.9 °F 42% 30.38 in 10.0 mi WNW 10.4 mph - N/A   Clear